Change the Weather History Date:

Saturday, March 2, 2013

  Actual Average Record
Temperature  
Mean Temperature 3 °F 17 °F  
Max Temperature 25 °F 28 °F 51 °F (1993)
Min Temperature -20 °F 5 °F -30 °F (1913)
Degree Days  
Heating Degree Days 62 48  
Month to date heating degree days 123 97  
Since 1 July heating degree days 7680 7680  
Cooling Degree Days 0 0  
Month to date cooling degree days 0 0  
Year to date cooling degree days 0 0  
Moisture  
Dew Point -9 °F    
Average Humidity 54    
Maximum Humidity 81    
Minimum Humidity 27    
Precipitation  
Precipitation 0.00 in 0.02 in 0.33 in (1976)
Month to date precipitation 0.00 0.05  
Year to date precipitation 3.66 1.24  
Snow  
Snow 0.00 in 0.40 in 5.30 in (1976)
Month to date snowfall 0.0 0.7  
Since 1 July snowfall 70.3 57.5  
Snow Depth 22.00 in    
Sea Level Pressure  
Sea Level Pressure 30.34 in    
Wind  
Wind Speed 4 mph (East)    
Max Wind Speed 12 mph    
Max Gust Speed 14 mph    
Visibility 10 miles    
Events      
T = Trace of Precipitation, MM = Missing Value Source: NWS Daily Summary

Daily Weather History Graph

Daily Weather History Graph

Search for Another Location

Airport or City:

Trip Planner

Search our weather history database for the weather conditions in past years. The results will help you decide how hot, cold, wet, or windy it might be!

Date:

Astronomy

Mar. 02, 2013 Rise Set
Actual Time 6:52 AM CST 5:59 PM CST
Civil Twilight 6:21 AM CST 6:30 PM CST
Nautical Twilight 5:44 AM CST 7:07 PM CST
Astronomical Twilight 5:08 AM CST 7:43 PM CST
Moon No Moon Rise 8:52 AM CST
Length of Visible Light 12h 09m
Length of Day
11h 06m
Waning Gibbous, 74% of the Moon is Illuminated
Mar 2
Waning Gibbous
Mar 4
Last Quarter
Mar 11
New
Mar 19
First Quarter
Mar 27
Full

Hourly Weather History & Observations

Time (CST) Temp. Windchill Dew Point Humidity Pressure Visibility Wind Dir Wind Speed Gust Speed Precip Events Conditions
12:55 AM -11.2 °F -20.6 °F -16.6 °F 77% 30.34 in 10.0 mi East 3.5 mph - N/A   Clear
1:55 AM -13.0 °F - -18.0 °F 78% 30.44 in 10.0 mi Calm Calm - N/A   Clear
2:55 AM -9.0 °F - -14.1 °F 79% 30.44 in 10.0 mi Calm Calm - N/A   Clear
3:55 AM -17.0 °F - -20.0 °F 86% 30.44 in 10.0 mi Calm Calm - N/A   Clear
4:55 AM -11.9 °F -21.5 °F -17.0 °F 78% 30.43 in 10.0 mi East 3.5 mph - N/A   Clear
5:55 AM -13.0 °F - -20.0 °F 71% 30.45 in 10.0 mi Calm Calm - N/A   Clear
6:55 AM -16.1 °F - -20.0 °F 82% 30.45 in 10.0 mi Calm Calm - N/A   Clear
7:55 AM -5.1 °F - -11.9 °F 72% 30.43 in 10.0 mi Calm Calm - N/A   Clear
8:55 AM 1.9 °F -7.6 °F -9.9 °F 58% 30.42 in 10.0 mi ESE 4.6 mph - N/A   Clear
9:55 AM 10.0 °F 1.8 °F -8.0 °F 44% 30.39 in 10.0 mi ESE 4.6 mph - N/A   Clear
10:55 AM 17.1 °F - -11.0 °F 28% 30.38 in 10.0 mi Calm Calm - N/A   Clear
11:55 AM 19.9 °F 11.1 °F -0.9 °F 40% 30.37 in 10.0 mi NNW 6.9 mph - N/A   Partly Cloudy
12:55 PM 21.0 °F 10.6 °F -2.9 °F 35% 30.34 in 10.0 mi NNE 9.2 mph - N/A   Overcast
1:55 PM 21.9 °F 14.5 °F -2.9 °F 34% 30.32 in 10.0 mi NE 5.8 mph - N/A   Overcast
2:55 PM 25.0 °F 19.3 °F -2.9 °F 30% 30.30 in 10.0 mi Variable 4.6 mph - N/A   Overcast
3:55 PM 25.0 °F 15.5 °F -4.0 °F 28% 30.28 in 10.0 mi East 9.2 mph - N/A   Scattered Clouds
4:55 PM 24.1 °F 16.0 °F -5.1 °F 28% 30.27 in 10.0 mi ENE 6.9 mph - N/A   Partly Cloudy
5:55 PM 21.9 °F 14.5 °F -2.9 °F 34% 30.27 in 10.0 mi East 5.8 mph - N/A   Overcast
6:55 PM 19.9 °F 12.1 °F -4.0 °F 35% 30.27 in 10.0 mi East 5.8 mph - N/A   Overcast
7:55 PM 19.0 °F 9.0 °F -5.1 °F 34% 30.25 in 10.0 mi ESE 8.1 mph - N/A   Overcast
8:55 PM 14.0 °F 3.9 °F -5.1 °F 43% 30.24 in 10.0 mi ESE 6.9 mph - N/A   Overcast
9:55 PM 15.1 °F 6.4 °F -5.1 °F 41% 30.22 in 10.0 mi ESE 5.8 mph - N/A   Overcast
10:55 PM 12.9 °F 5.2 °F -2.0 °F 51% 30.20 in 10.0 mi ESE 4.6 mph - N/A   Overcast
11:55 PM 10.9 °F 0.2 °F -5.1 °F 49% 30.20 in 10.0 mi ESE 6.9 mph - N/A   Overcast